| time (UTC) | temp C | wind direction | speed KPH | gust KPH | rain 1hr cm | rain 24hr cm | rain mn cm | humidity % | barometer mb |
| 20260509022554 | 21 | 94 | 0.0 | 6.4 | 0.00 | 0.38 | 0.38 | 80 | 1009.6 |
| 20260509022058 | 21 | 185 | 0.0 | 3.2 | 0.00 | 0.38 | 0.38 | 80 | 1009.1 |
| 20260509021554 | 21 | 186 | 0.0 | 8.0 | 0.00 | 0.38 | 0.38 | 79 | 1008.9 |
| 20260509021056 | 21 | 0 | 0.0 | 8.0 | 0.00 | 0.38 | 0.38 | 79 | 1008.6 |
| 20260509020554 | 21 | 0 | 0.0 | 8.0 | 0.00 | 0.38 | 0.38 | 78 | 1008.3 |
| 20260509020105 | 21 | 0 | 0.0 | 8.0 | 0.00 | 0.38 | 0.38 | 78 | 1008.3 |
| 20260509015555 | 22 | 210 | 0.0 | 4.8 | 0.00 | 0.38 | 0.38 | 78 | 1008.2 |
| 20260509015055 | 22 | 0 | 0.0 | 6.4 | 0.00 | 0.38 | 0.38 | 77 | 1008.1 |
| 20260509014555 | 22 | 0 | 0.0 | 8.0 | 0.00 | 0.38 | 0.38 | 77 | 1008.2 |
| 20260509014054 | 22 | 200 | 0.0 | 8.0 | 0.00 | 0.38 | 0.38 | 77 | 1008.2 |
| 20260509013554 | 22 | 0 | 1.6 | 11.3 | 0.00 | 0.38 | 0.38 | 76 | 1008.0 |
| 20260509013059 | 22 | 0 | 0.0 | 11.3 | 0.00 | 0.38 | 0.38 | 76 | 1008.0 |
| 20260509012554 | 22 | 174 | 1.6 | 11.3 | 0.00 | 0.38 | 0.38 | 75 | 1008.1 |
| 20260509012054 | 23 | 181 | 1.6 | 11.3 | 0.00 | 0.38 | 0.38 | 74 | 1008.2 |
| 20260509011558 | 23 | 180 | 3.2 | 11.3 | 0.00 | 0.38 | 0.38 | 74 | 1008.3 |
| 20260509011055 | 23 | 206 | 1.6 | 11.3 | 0.00 | 0.38 | 0.38 | 73 | 1008.4 |
| 20260509010554 | 23 | 0 | 0.0 | 11.3 | 0.00 | 0.38 | 0.38 | 73 | 1008.6 |
| 20260509010054 | 23 | 0 | 1.6 | 9.7 | 0.00 | 0.38 | 0.38 | 73 | 1008.7 |
| 20260509005554 | 23 | 192 | 0.0 | 9.7 | 0.00 | 0.38 | 0.38 | 72 | 1008.8 |
| 20260509005054 | 23 | 187 | 0.0 | 8.0 | 0.00 | 0.38 | 0.38 | 72 | 1008.8 |
| 20260509004600 | 23 | 0 | 1.6 | 8.0 | 0.00 | 0.38 | 0.38 | 71 | 1008.7 |
| 20260509004057 | 23 | 190 | 1.6 | 8.0 | 0.00 | 0.38 | 0.38 | 71 | 1008.7 |
| 20260509003555 | 24 | 0 | 1.6 | 16.1 | 0.00 | 0.38 | 0.38 | 71 | 1008.5 |
| 20260509003059 | 24 | 199 | 3.2 | 16.1 | 0.00 | 0.38 | 0.38 | 70 | 1008.3 |
| 20260509002554 | 24 | 194 | 3.2 | 14.5 | 0.00 | 0.38 | 0.38 | 70 | 1008.3 |
| 20260509002054 | 25 | 194 | 1.6 | 16.1 | 0.00 | 0.38 | 0.38 | 70 | 1008.3 |
| 20260509001600 | 25 | 216 | 3.2 | 16.1 | 0.00 | 0.38 | 0.38 | 69 | 1008.2 |
| 20260509001054 | 25 | 175 | 3.2 | 16.1 | 0.00 | 0.38 | 0.38 | 69 | 1008.2 |
| 20260509000554 | 25 | 186 | 4.8 | 14.5 | 0.00 | 0.38 | 0.38 | 69 | 1008.1 |
| 20260509000107 | 25 | 171 | 3.2 | 14.5 | 0.00 | 0.38 | 0.38 | 68 | 1008.1 |
| 20260508235554 | 25 | 136 | 3.2 | 14.5 | 0.00 | 0.38 | 0.38 | 68 | 1008.0 |
| 20260508235054 | 25 | 211 | 1.6 | 11.3 | 0.00 | 0.38 | 0.38 | 67 | 1008.1 |
| 20260508234557 | 25 | 182 | 1.6 | 11.3 | 0.00 | 0.38 | 0.38 | 66 | 1008.1 |
| 20260508234100 | 25 | 197 | 3.2 | 12.9 | 0.00 | 0.38 | 0.38 | 66 | 1008.2 |
| 20260508233555 | 25 | 175 | 3.2 | 12.9 | 0.00 | 0.38 | 0.38 | 65 | 1008.2 |
| 20260508233054 | 26 | 168 | 3.2 | 16.1 | 0.00 | 0.38 | 0.38 | 65 | 1008.3 |
| 20260508232556 | 26 | 173 | 1.6 | 17.7 | 0.00 | 0.38 | 0.38 | 64 | 1008.3 |
| 20260508232054 | 26 | 195 | 4.8 | 17.7 | 0.00 | 0.38 | 0.38 | 64 | 1008.3 |
| 20260508231559 | 26 | 193 | 3.2 | 14.5 | 0.00 | 0.38 | 0.38 | 64 | 1008.3 |
| 20260508231055 | 26 | 209 | 1.6 | 12.9 | 0.00 | 0.38 | 0.38 | 64 | 1008.3 |
| 20260508230559 | 26 | 171 | 1.6 | 14.5 | 0.00 | 0.38 | 0.38 | 64 | 1008.4 |
| 20260508230058 | 26 | 200 | 4.8 | 14.5 | 0.00 | 0.38 | 0.38 | 63 | 1008.3 |
| 20260508225555 | 26 | 230 | 3.2 | 14.5 | 0.00 | 0.38 | 0.38 | 63 | 1008.3 |
| 20260508225058 | 26 | 80 | 3.2 | 16.1 | 0.00 | 0.38 | 0.38 | 63 | 1008.3 |
| 20260508224635 | 26 | 205 | 4.8 | 16.1 | 0.00 | 0.38 | 0.38 | 63 | 1008.4 |
| 20260508224055 | 26 | 223 | 3.2 | 17.7 | 0.00 | 0.38 | 0.38 | 63 | 1008.3 |
| 20260508223555 | 26 | 181 | 3.2 | 17.7 | 0.00 | 0.38 | 0.38 | 64 | 1008.3 |
| 20260508223055 | 26 | 200 | 3.2 | 16.1 | 0.00 | 0.38 | 0.38 | 64 | 1008.3 |
| 20260508222558 | 26 | 33 | 1.6 | 16.1 | 0.00 | 0.38 | 0.38 | 64 | 1008.5 |
| 20260508222055 | 26 | 172 | 3.2 | 16.1 | 0.00 | 0.38 | 0.38 | 65 | 1008.5 |
| 20260508221555 | 26 | 182 | 6.4 | 16.1 | 0.00 | 0.38 | 0.38 | 63 | 1008.5 |
| 20260508221054 | 26 | 152 | 4.8 | 17.7 | 0.00 | 0.38 | 0.38 | 62 | 1008.6 |
| 20260508220554 | 27 | 199 | 6.4 | 17.7 | 0.00 | 0.38 | 0.38 | 62 | 1008.7 |
| 20260508220058 | 27 | 216 | 3.2 | 12.9 | 0.00 | 0.38 | 0.38 | 63 | 1008.6 |
| 20260508215554 | 27 | 157 | 1.6 | 12.9 | 0.00 | 0.38 | 0.38 | 62 | 1008.6 |
| 20260508215054 | 27 | 209 | 1.6 | 12.9 | 0.00 | 0.38 | 0.38 | 62 | 1008.6 |
| 20260508214559 | 27 | 182 | 3.2 | 12.9 | 0.00 | 0.38 | 0.38 | 62 | 1008.7 |
| 20260508214055 | 27 | 111 | 3.2 | 12.9 | 0.00 | 0.38 | 0.38 | 62 | 1008.7 |
| 20260508213554 | 27 | 205 | 3.2 | 17.7 | 0.00 | 0.38 | 0.38 | 61 | 1008.7 |
| 20260508213100 | 27 | 178 | 3.2 | 17.7 | 0.00 | 0.38 | 0.38 | 62 | 1008.8 |
| 20260508212554 | 27 | 205 | 4.8 | 16.1 | 0.00 | 0.38 | 0.38 | 60 | 1008.8 |
| 20260508212053 | 27 | 157 | 1.6 | 8.0 | 0.00 | 0.38 | 0.38 | 61 | 1008.9 |
| 20260508211602 | 27 | 188 | 1.6 | 9.7 | 0.00 | 0.38 | 0.38 | 62 | 1008.8 |
| 20260508211054 | 27 | 0 | 1.6 | 11.3 | 0.00 | 0.38 | 0.38 | 62 | 1008.8 |
| 20260508210554 | 27 | 152 | 1.6 | 11.3 | 0.00 | 0.38 | 0.38 | 61 | 1008.7 |
| 20260508210056 | 27 | 175 | 3.2 | 14.5 | 0.00 | 0.38 | 0.38 | 62 | 1008.7 |
| 20260508205558 | 27 | 335 | 1.6 | 17.7 | 0.00 | 0.38 | 0.38 | 61 | 1008.8 |
| 20260508205056 | 27 | 194 | 3.2 | 17.7 | 0.00 | 0.38 | 0.38 | 61 | 1009.0 |
| 20260508204557 | 27 | 151 | 3.2 | 19.3 | 0.00 | 0.38 | 0.38 | 60 | 1009.1 |
| 20260508204055 | 26 | 220 | 3.2 | 24.1 | 0.00 | 0.38 | 0.38 | 63 | 1009.3 |
| 20260508203554 | 26 | 184 | 9.7 | 24.1 | 0.00 | 0.38 | 0.38 | 61 | 1009.5 |
| 20260508203107 | 26 | 204 | 4.8 | 17.7 | 0.00 | 0.38 | 0.38 | 62 | 1009.6 |
| 20260508202557 | 26 | 76 | 6.4 | 19.3 | 0.00 | 0.38 | 0.38 | 63 | 1009.8 |
| 20260508202057 | 26 | 177 | 3.2 | 19.3 | 0.00 | 0.38 | 0.38 | 62 | 1009.9 |
| 20260508201604 | 26 | 187 | 6.4 | 17.7 | 0.00 | 0.38 | 0.38 | 61 | 1010.1 |
| 20260508201057 | 26 | 207 | 4.8 | 17.7 | 0.00 | 0.38 | 0.38 | 62 | 1010.1 |
| 20260508200555 | 27 | 204 | 4.8 | 16.1 | 0.00 | 0.38 | 0.38 | 59 | 1010.3 |
| 20260508200055 | 28 | 134 | 4.8 | 16.1 | 0.00 | 0.38 | 0.38 | 60 | 1010.3 |
| 20260508195600 | 28 | 186 | 3.2 | 17.7 | 0.00 | 0.38 | 0.38 | 58 | 1010.4 |
| 20260508195100 | 28 | 203 | 4.8 | 17.7 | 0.00 | 0.38 | 0.38 | 57 | 1010.3 |
| 20260508194559 | 28 | 213 | 3.2 | 20.9 | 0.00 | 0.38 | 0.38 | 59 | 1010.4 |
| 20260508194056 | 27 | 169 | 6.4 | 20.9 | 0.00 | 0.38 | 0.38 | 60 | 1010.4 |
| 20260508193559 | 27 | 227 | 3.2 | 9.7 | 0.00 | 0.38 | 0.38 | 64 | 1010.5 |
| 20260508193057 | 26 | 207 | 3.2 | 12.9 | 0.00 | 0.38 | 0.38 | 64 | 1010.6 |
| 20260508192554 | 26 | 168 | 4.8 | 12.9 | 0.00 | 0.38 | 0.38 | 62 | 1010.7 |
| 20260508192055 | 26 | 167 | 3.2 | 12.9 | 0.00 | 0.38 | 0.38 | 62 | 1010.7 |
| 20260508191557 | 26 | 223 | 4.8 | 16.1 | 0.00 | 0.38 | 0.38 | 62 | 1010.6 |
| 20260508191058 | 26 | 180 | 1.6 | 16.1 | 0.00 | 0.38 | 0.38 | 60 | 1010.6 |
| 20260508190554 | 27 | 217 | 3.2 | 12.9 | 0.00 | 0.38 | 0.38 | 59 | 1010.6 |
| 20260508190056 | 27 | 0 | 1.6 | 11.3 | 0.00 | 0.38 | 0.38 | 61 | 1010.6 |
| 20260508185554 | 27 | 134 | 4.8 | 11.3 | 0.00 | 0.38 | 0.38 | 59 | 1010.7 |
| 20260508185054 | 27 | 171 | 1.6 | 9.7 | 0.00 | 0.38 | 0.38 | 61 | 1010.8 |
| 20260508184556 | 27 | 191 | 1.6 | 14.5 | 0.00 | 0.38 | 0.38 | 62 | 1011.0 |
| 20260508184054 | 26 | 32 | 3.2 | 14.5 | 0.00 | 0.38 | 0.38 | 61 | 1011.1 |
| 20260508183554 | 26 | 205 | 3.2 | 11.3 | 0.00 | 0.38 | 0.38 | 63 | 1011.1 |
| 20260508183056 | 26 | 67 | 1.6 | 9.7 | 0.00 | 0.38 | 0.38 | 62 | 1011.1 |
| 20260508182553 | 27 | 167 | 1.6 | 11.3 | 0.00 | 0.38 | 0.38 | 60 | 1011.2 |
| 20260508182055 | 26 | 0 | 1.6 | 11.3 | 0.00 | 0.38 | 0.38 | 62 | 1011.2 |
| 20260508181558 | 27 | 182 | 1.6 | 11.3 | 0.00 | 0.38 | 0.38 | 61 | 1011.4 |
| 20260508181055 | 26 | 199 | 1.6 | 11.3 | 0.00 | 0.38 | 0.38 | 62 | 1011.5 |
| 20260508180555 | 26 | 190 | 1.6 | 12.9 | 0.00 | 0.38 | 0.38 | 64 | 1011.6 |
| 20260508180057 | 26 | 0 | 0.0 | 12.9 | 0.00 | 0.38 | 0.38 | 65 | 1011.7 |
| 20260508175554 | 26 | 82 | 1.6 | 6.4 | 0.00 | 0.38 | 0.38 | 66 | 1011.9 |
| 20260508175054 | 26 | 74 | 1.6 | 9.7 | 0.00 | 0.38 | 0.38 | 64 | 1011.9 |
| 20260508174559 | 26 | 275 | 1.6 | 9.7 | 0.00 | 0.38 | 0.38 | 65 | 1012.1 |
| 20260508174056 | 26 | 101 | 1.6 | 9.7 | 0.00 | 0.38 | 0.38 | 64 | 1012.2 |
| 20260508173554 | 25 | 161 | 1.6 | 11.3 | 0.00 | 0.38 | 0.38 | 64 | 1012.2 |
| 20260508173055 | 25 | 223 | 1.6 | 12.9 | 0.00 | 0.38 | 0.38 | 63 | 1012.3 |
| 20260508172554 | 25 | 207 | 3.2 | 12.9 | 0.00 | 0.38 | 0.38 | 65 | 1012.3 |
| 20260508172054 | 25 | 192 | 1.6 | 8.0 | 0.00 | 0.38 | 0.38 | 64 | 1012.4 |
| 20260508171553 | 25 | 200 | 1.6 | 9.7 | 0.00 | 0.38 | 0.38 | 62 | 1012.4 |
| 20260508171053 | 24 | 130 | 1.6 | 9.7 | 0.00 | 0.38 | 0.38 | 63 | 1012.5 |
| 20260508170553 | 24 | 188 | 1.6 | 6.4 | 0.00 | 0.38 | 0.38 | 65 | 1012.7 |
| 20260508170054 | 24 | 215 | 1.6 | 6.4 | 0.00 | 0.38 | 0.38 | 64 | 1012.7 |
| 20260508165555 | 23 | 238 | 1.6 | 9.7 | 0.00 | 0.38 | 0.38 | 67 | 1012.8 |
| 20260508165054 | 23 | 190 | 1.6 | 9.7 | 0.00 | 0.38 | 0.38 | 68 | 1013.0 |
| 20260508164555 | 22 | 164 | 1.6 | 9.7 | 0.00 | 0.38 | 0.38 | 68 | 1013.0 |
| 20260508164054 | 22 | 0 | 1.6 | 11.3 | 0.00 | 0.38 | 0.38 | 66 | 1013.0 |
| 20260508163554 | 22 | 157 | 3.2 | 11.3 | 0.00 | 0.38 | 0.38 | 64 | 1013.2 |
| 20260508163053 | 23 | 194 | 3.2 | 17.7 | 0.00 | 0.38 | 0.38 | 65 | 1013.4 |
| 20260508162554 | 23 | 213 | 3.2 | 19.3 | 0.00 | 0.38 | 0.38 | 67 | 1013.4 |
| 20260508162054 | 22 | 214 | 6.4 | 19.3 | 0.00 | 0.38 | 0.38 | 65 | 1013.5 |
| 20260508161557 | 22 | 217 | 1.6 | 12.9 | 0.00 | 0.38 | 0.38 | 66 | 1013.4 |
| 20260508161056 | 22 | 137 | 3.2 | 12.9 | 0.00 | 0.38 | 0.38 | 68 | 1013.4 |
| 20260508160555 | 22 | 200 | 1.6 | 12.9 | 0.00 | 0.38 | 0.38 | 67 | 1013.4 |
| 20260508160054 | 22 | 202 | 1.6 | 11.3 | 0.00 | 0.38 | 0.38 | 68 | 1013.5 |
| 20260508155555 | 21 | 175 | 3.2 | 16.1 | 0.00 | 0.38 | 0.38 | 68 | 1013.6 |
| 20260508155056 | 21 | 126 | 3.2 | 16.1 | 0.00 | 0.38 | 0.38 | 67 | 1013.7 |
| 20260508154609 | 22 | 183 | 3.2 | 12.9 | 0.00 | 0.38 | 0.38 | 68 | 1013.8 |
| 20260508154054 | 21 | 193 | 1.6 | 11.3 | 0.00 | 0.38 | 0.38 | 68 | 1013.8 |
| 20260508153554 | 21 | 119 | 1.6 | 11.3 | 0.00 | 0.38 | 0.38 | 70 | 1014.0 |
| 20260508153054 | 21 | 184 | 3.2 | 11.3 | 0.00 | 0.38 | 0.38 | 70 | 1013.9 |
| 20260508152554 | 21 | 163 | 0.0 | 8.0 | 0.00 | 0.38 | 0.38 | 71 | 1014.0 |
| 20260508152054 | 21 | 0 | 1.6 | 9.7 | 0.00 | 0.38 | 0.38 | 71 | 1014.1 |
| 20260508151555 | 21 | 203 | 3.2 | 9.7 | 0.00 | 0.38 | 0.38 | 74 | 1014.2 |
| 20260508151054 | 20 | 198 | 3.2 | 11.3 | 0.00 | 0.38 | 0.38 | 75 | 1014.2 |
| 20260508150555 | 20 | 0 | 1.6 | 11.3 | 0.00 | 0.38 | 0.38 | 74 | 1014.0 |
| 20260508150108 | 20 | 210 | 1.6 | 12.9 | 0.00 | 0.38 | 0.38 | 75 | 1014.3 |
| 20260508145554 | 20 | 191 | 1.6 | 12.9 | 0.00 | 0.38 | 0.38 | 73 | 1014.3 |
| 20260508145053 | 21 | 197 | 4.8 | 11.3 | 0.00 | 0.38 | 0.38 | 73 | 1014.6 |
| 20260508144553 | 21 | 169 | 1.6 | 6.4 | 0.00 | 0.38 | 0.38 | 77 | 1014.3 |
| 20260508144055 | 20 | 92 | 1.6 | 6.4 | 0.00 | 0.38 | 0.38 | 77 | 1014.4 |
| 20260508143555 | 20 | 192 | 1.6 | 9.7 | 0.00 | 0.38 | 0.38 | 81 | 1014.4 |
| 20260508143135 | 18 | 215 | 1.6 | 9.7 | 0.00 | 0.38 | 0.38 | 83 | 1014.2 |
| 20260508142554 | 18 | 202 | 1.6 | 8.0 | 0.00 | 0.38 | 0.38 | 85 | 1014.3 |
| 20260508142054 | 18 | 196 | 0.0 | 8.0 | 0.00 | 0.38 | 0.38 | 86 | 1014.2 |
| 20260508141607 | 18 | 0 | 0.0 | 8.0 | 0.00 | 0.38 | 0.38 | 88 | 1014.5 |
| 20260508141055 | 17 | 0 | 0.0 | 8.0 | 0.00 | 0.38 | 0.38 | 90 | 1014.4 |
| 20260508140554 | 17 | 0 | 1.6 | 8.0 | 0.00 | 0.38 | 0.38 | 89 | 1014.7 |
| 20260508140106 | 17 | 194 | 0.0 | 6.4 | 0.00 | 0.38 | 0.38 | 89 | 1014.7 |
| 20260508135554 | 17 | 0 | 0.0 | 6.4 | 0.00 | 0.38 | 0.38 | 89 | 1014.5 |
| 20260508135055 | 17 | 195 | 0.0 | 4.8 | 0.00 | 0.38 | 0.38 | 90 | 1014.8 |
| 20260508134557 | 17 | 0 | 0.0 | 3.2 | 0.00 | 0.38 | 0.38 | 90 | 1014.6 |
| 20260508134055 | 16 | 0 | 0.0 | 3.2 | 0.00 | 0.38 | 0.38 | 90 | 1014.7 |
| 20260508133557 | 16 | 0 | 0.0 | 3.2 | 0.00 | 0.38 | 0.38 | 90 | 1014.5 |
| 20260508133108 | 16 | 0 | 0.0 | 3.2 | 0.00 | 0.38 | 0.38 | 90 | 1014.5 |
| 20260508132554 | 16 | 0 | 0.0 | 3.2 | 0.00 | 0.38 | 0.38 | 90 | 1014.6 |
| 20260508132055 | 16 | 0 | 0.0 | 4.8 | 0.00 | 0.38 | 0.38 | 90 | 1014.6 |
| 20260508131601 | 16 | 0 | 0.0 | 11.3 | 0.00 | 0.38 | 0.38 | 89 | 1014.5 |
| 20260508131055 | 16 | 197 | 1.6 | 11.3 | 0.00 | 0.38 | 0.38 | 90 | 1014.5 |
| 20260508130554 | 16 | 0 | 1.6 | 6.4 | 0.00 | 0.38 | 0.38 | 90 | 1014.5 |
| 20260508125554 | 15 | 0 | 0.0 | 3.2 | 0.00 | 0.38 | 0.38 | 89 | 1014.4 |
| 20260508125055 | 15 | 0 | 0.0 | 3.2 | 0.00 | 0.38 | 0.38 | 89 | 1014.4 |
| 20260508124558 | 15 | 0 | 0.0 | 1.6 | 0.00 | 0.38 | 0.38 | 89 | 1014.3 |
| 20260508124054 | 15 | 0 | 0.0 | 3.2 | 0.00 | 0.38 | 0.38 | 89 | 1014.4 |
| 20260508123554 | 15 | 0 | 0.0 | 4.8 | 0.00 | 0.38 | 0.38 | 88 | 1014.4 |
| 20260508123056 | 15 | 0 | 0.0 | 4.8 | 0.00 | 0.38 | 0.38 | 88 | 1014.3 |
| 20260508122553 | 15 | 186 | 0.0 | 6.4 | 0.00 | 0.38 | 0.38 | 88 | 1014.3 |
| 20260508122054 | 15 | 0 | 0.0 | 6.4 | 0.00 | 0.38 | 0.38 | 88 | 1014.3 |
| 20260508121602 | 15 | 0 | 0.0 | 9.7 | 0.00 | 0.38 | 0.38 | 88 | 1014.4 |
| 20260508121054 | 15 | 0 | 0.0 | 9.7 | 0.00 | 0.38 | 0.38 | 88 | 1014.3 |
| 20260508120555 | 15 | 150 | 1.6 | 6.4 | 0.05 | 0.38 | 0.38 | 87 | 1014.3 |
| 20260508120055 | 15 | 187 | 1.6 | 6.4 | 0.25 | 0.38 | 0.38 | 87 | 1014.4 |
| 20260508115557 | 15 | 179 | 0.0 | 4.8 | 0.38 | 0.38 | 0.38 | 87 | 1014.6 |
| 20260508115054 | 15 | 0 | 0.0 | 3.2 | 0.38 | 0.38 | 0.38 | 87 | 1014.6 |
| 20260508114552 | 15 | 0 | 0.0 | 3.2 | 0.38 | 0.38 | 0.38 | 86 | 1014.6 |
| 20260508114055 | 15 | 0 | 0.0 | 0.0 | 0.38 | 0.38 | 0.38 | 86 | 1014.5 |
| 20260508113555 | 15 | 0 | 0.0 | 4.8 | 0.38 | 0.38 | 0.38 | 86 | 1014.5 |
| 20260508113055 | 15 | 0 | 0.0 | 4.8 | 0.38 | 0.38 | 0.38 | 86 | 1014.4 |
| 20260508112554 | 15 | 0 | 0.0 | 3.2 | 0.38 | 0.38 | 0.38 | 86 | 1014.2 |
| 20260508112054 | 15 | 0 | 0.0 | 6.4 | 0.38 | 0.38 | 0.38 | 86 | 1014.5 |
| 20260508111603 | 15 | 0 | 0.0 | 9.7 | 0.38 | 0.38 | 0.38 | 85 | 1014.4 |
| 20260508111055 | 15 | 202 | 1.6 | 11.3 | 0.38 | 0.38 | 0.38 | 85 | 1014.0 |
| 20260508110555 | 16 | 149 | 0.0 | 14.5 | 0.30 | 0.30 | 0.30 | 85 | 1013.8 |
| 20260508110057 | 16 | 179 | 4.8 | 14.5 | 0.13 | 0.13 | 0.13 | 84 | 1014.3 |
| 20260508105555 | 16 | 180 | 3.2 | 9.7 | 0.00 | 0.00 | 0.00 | 84 | 1014.0 |
| 20260508105054 | 16 | 212 | 0.0 | 4.8 | 0.00 | 0.00 | 0.00 | 84 | 1013.8 |
| 20260508104600 | 16 | 221 | 0.0 | 3.2 | 0.00 | 0.00 | 0.00 | 83 | 1013.6 |
| 20260508104055 | 16 | 0 | 0.0 | 6.4 | 0.00 | 0.00 | 0.00 | 83 | 1013.6 |
| 20260508103554 | 16 | 0 | 0.0 | 8.0 | 0.00 | 0.00 | 0.00 | 83 | 1013.8 |
| 20260508103102 | 16 | 224 | 1.6 | 9.7 | 0.00 | 0.00 | 0.00 | 83 | 1014.0 |
| 20260508102554 | 16 | 200 | 1.6 | 9.7 | 0.00 | 0.00 | 0.00 | 83 | 1014.0 |
| 20260508102056 | 16 | 188 | 0.0 | 4.8 | 0.00 | 0.00 | 0.00 | 83 | 1013.9 |
| 20260508101555 | 16 | 0 | 0.0 | 1.6 | 0.00 | 0.00 | 0.00 | 82 | 1013.9 |
| 20260508101055 | 16 | 0 | 0.0 | 4.8 | 0.00 | 0.00 | 0.00 | 82 | 1013.6 |
| 20260508100554 | 16 | 0 | 0.0 | 4.8 | 0.00 | 0.00 | 0.00 | 82 | 1013.8 |
| 20260508100055 | 16 | 184 | 0.0 | 1.6 | 0.00 | 0.00 | 0.00 | 82 | 1014.3 |
| 20260508095555 | 16 | 0 | 0.0 | 0.0 | 0.00 | 0.00 | 0.00 | 81 | 1014.3 |
| 20260508095054 | 16 | 0 | 0.0 | 0.0 | 0.00 | 0.00 | 0.00 | 81 | 1014.0 |
| 20260508094554 | 16 | 0 | 0.0 | 0.0 | 0.00 | 0.00 | 0.00 | 81 | 1013.7 |
| 20260508094055 | 16 | 0 | 0.0 | 0.0 | 0.00 | 0.00 | 0.00 | 81 | 1013.8 |
| 20260508093557 | 16 | 0 | 0.0 | 0.0 | 0.00 | 0.00 | 0.00 | 81 | 1013.7 |
| 20260508093054 | 16 | 0 | 0.0 | 3.2 | 0.00 | 0.00 | 0.00 | 81 | 1013.8 |
| 20260508092555 | 16 | 0 | 0.0 | 3.2 | 0.00 | 0.00 | 0.00 | 81 | 1013.6 |
| 20260508092054 | 16 | 0 | 0.0 | 3.2 | 0.00 | 0.00 | 0.00 | 81 | 1013.6 |
| 20260508091608 | 16 | 0 | 0.0 | 4.8 | 0.00 | 0.00 | 0.00 | 81 | 1013.4 |
| 20260508091054 | 16 | 0 | 0.0 | 4.8 | 0.00 | 0.00 | 0.00 | 80 | 1013.6 |
| 20260508090555 | 16 | 0 | 0.0 | 4.8 | 0.00 | 0.00 | 0.00 | 80 | 1013.8 |
| 20260508090056 | 16 | 0 | 0.0 | 4.8 | 0.00 | 0.00 | 0.00 | 80 | 1013.7 |
| 20260508085554 | 16 | 0 | 0.0 | 3.2 | 0.00 | 0.00 | 0.00 | 80 | 1013.6 |
| 20260508085054 | 16 | 185 | 0.0 | 3.2 | 0.00 | 0.00 | 0.00 | 79 | 1013.7 |
| 20260508084613 | 15 | 0 | 0.0 | 4.8 | 0.00 | 0.00 | 0.00 | 79 | 1013.8 |
| 20260508084055 | 16 | 0 | 0.0 | 4.8 | 0.00 | 0.00 | 0.00 | 79 | 1013.9 |
| 20260508083554 | 15 | 186 | 0.0 | 3.2 | 0.00 | 0.00 | 0.00 | 79 | 1014.2 |
| 20260508083107 | 15 | 0 | 0.0 | 1.6 | 0.00 | 0.00 | 0.00 | 78 | 1014.0 |
| 20260508082554 | 15 | 0 | 0.0 | 4.8 | 0.00 | 0.00 | 0.00 | 78 | 1014.0 |
| 20260508082055 | 15 | 0 | 0.0 | 4.8 | 0.00 | 0.00 | 0.00 | 78 | 1014.1 |
| 20260508081558 | 15 | 0 | 0.0 | 4.8 | 0.00 | 0.00 | 0.00 | 78 | 1014.3 |
| 20260508081054 | 15 | 0 | 0.0 | 1.6 | 0.00 | 0.00 | 0.00 | 78 | 1014.1 |
| 20260508080555 | 15 | 0 | 0.0 | 1.6 | 0.00 | 0.00 | 0.00 | 78 | 1014.1 |
| 20260508080109 | 15 | 0 | 0.0 | 1.6 | 0.00 | 0.00 | 0.00 | 78 | 1014.3 |
| 20260508075554 | 15 | 0 | 0.0 | 1.6 | 0.00 | 0.00 | 0.00 | 78 | 1014.5 |
| 20260508075054 | 15 | 0 | 0.0 | 1.6 | 0.00 | 0.00 | 0.00 | 78 | 1014.8 |
| 20260508074603 | 15 | 0 | 0.0 | 1.6 | 0.00 | 0.00 | 0.00 | 77 | 1014.4 |
| 20260508074055 | 15 | 0 | 0.0 | 0.0 | 0.00 | 0.00 | 0.00 | 77 | 1014.5 |
| 20260508073559 | 15 | 0 | 0.0 | 3.2 | 0.00 | 0.00 | 0.00 | 77 | 1014.8 |
| 20260508073101 | 15 | 0 | 0.0 | 6.4 | 0.00 | 0.00 | 0.00 | 78 | 1014.5 |
| 20260508072558 | 15 | 190 | 0.0 | 8.0 | 0.00 | 0.00 | 0.00 | 78 | 1015.1 |
| 20260508072055 | 15 | 202 | 1.6 | 8.0 | 0.00 | 0.00 | 0.00 | 78 | 1015.3 |
| 20260508071554 | 15 | 190 | 1.6 | 6.4 | 0.00 | 0.00 | 0.00 | 78 | 1015.6 |
| 20260508071055 | 15 | 190 | 0.0 | 4.8 | 0.00 | 0.00 | 0.00 | 77 | 1015.7 |
| 20260508070555 | 15 | 190 | 0.0 | 4.8 | 0.00 | 0.00 | 0.00 | 77 | 1015.2 |
| 20260508070056 | 15 | 0 | 0.0 | 0.0 | 0.00 | 0.00 | 0.00 | 76 | 1015.3 |
| 20260508065554 | 15 | 0 | 0.0 | 0.0 | 0.00 | 0.00 | 0.00 | 76 | 1015.1 |
| 20260508065058 | 15 | 0 | 0.0 | 0.0 | 0.00 | 0.00 | 0.00 | 76 | 1015.3 |
| 20260508064602 | 15 | 0 | 0.0 | 0.0 | 0.00 | 0.00 | 0.00 | 75 | 1015.4 |
| 20260508064054 | 15 | 0 | 0.0 | 0.0 | 0.00 | 0.00 | 0.00 | 75 | 1015.4 |
| 20260508063555 | 15 | 0 | 0.0 | 0.0 | 0.00 | 0.00 | 0.00 | 75 | 1015.4 |
| 20260508063056 | 15 | 0 | 0.0 | 0.0 | 0.00 | 0.00 | 0.00 | 75 | 1015.5 |
| 20260508062554 | 15 | 0 | 0.0 | 0.0 | 0.00 | 0.00 | 0.00 | 75 | 1015.5 |
| 20260508062057 | 15 | 0 | 0.0 | 0.0 | 0.00 | 0.00 | 0.00 | 74 | 1015.4 |
| 20260508061557 | 15 | 0 | 0.0 | 0.0 | 0.00 | 0.00 | 0.00 | 74 | 1015.5 |
| 20260508061054 | 16 | 0 | 0.0 | 0.0 | 0.00 | 0.00 | 0.00 | 74 | 1015.5 |
| 20260508060553 | 16 | 0 | 0.0 | 0.0 | 0.00 | 0.00 | 0.00 | 74 | 1015.7 |
| 20260508060059 | 16 | 0 | 0.0 | 0.0 | 0.00 | 0.00 | 0.00 | 73 | 1015.7 |
| 20260508055556 | 16 | 0 | 0.0 | 0.0 | 0.00 | 0.00 | 0.00 | 73 | 1015.7 |
| 20260508055054 | 16 | 0 | 0.0 | 0.0 | 0.00 | 0.00 | 0.00 | 73 | 1015.6 |
| 20260508054559 | 16 | 0 | 0.0 | 0.0 | 0.00 | 0.00 | 0.00 | 73 | 1015.7 |
| 20260508054054 | 16 | 0 | 0.0 | 0.0 | 0.00 | 0.00 | 0.00 | 72 | 1015.6 |
| 20260508053555 | 16 | 0 | 0.0 | 0.0 | 0.00 | 0.00 | 0.00 | 72 | 1015.7 |
| 20260508053101 | 16 | 0 | 0.0 | 0.0 | 0.00 | 0.00 | 0.00 | 72 | 1015.6 |
| 20260508052557 | 16 | 0 | 0.0 | 0.0 | 0.00 | 0.00 | 0.00 | 72 | 1015.6 |
| 20260508052053 | 16 | 0 | 0.0 | 0.0 | 0.00 | 0.00 | 0.00 | 72 | 1015.6 |
| 20260508051610 | 16 | 0 | 0.0 | 0.0 | 0.00 | 0.00 | 0.00 | 72 | 1015.6 |
| 20260508051057 | 16 | 0 | 0.0 | 0.0 | 0.00 | 0.00 | 0.00 | 72 | 1015.5 |
| 20260508050554 | 16 | 0 | 0.0 | 0.0 | 0.00 | 0.00 | 0.00 | 72 | 1015.5 |
| 20260508050111 | 16 | 0 | 0.0 | 3.2 | 0.00 | 0.00 | 0.00 | 72 | 1015.5 |
| 20260508045555 | 16 | 0 | 0.0 | 3.2 | 0.00 | 0.00 | 0.00 | 72 | 1015.4 |
| 20260508045054 | 16 | 0 | 0.0 | 4.8 | 0.00 | 0.00 | 0.00 | 72 | 1015.7 |
| 20260508044557 | 16 | 0 | 0.0 | 4.8 | 0.00 | 0.00 | 0.00 | 72 | 1015.7 |
| 20260508044055 | 16 | 190 | 0.0 | 4.8 | 0.00 | 0.00 | 0.00 | 72 | 1015.8 |
| 20260508043553 | 16 | 0 | 0.0 | 1.6 | 0.00 | 0.00 | 0.00 | 72 | 1015.8 |
| 20260508043056 | 16 | 0 | 0.0 | 1.6 | 0.00 | 0.00 | 0.00 | 72 | 1015.7 |
| 20260508042554 | 16 | 0 | 0.0 | 1.6 | 0.00 | 0.00 | 0.00 | 71 | 1015.6 |
| 20260508042053 | 16 | 0 | 0.0 | 1.6 | 0.00 | 0.00 | 0.00 | 71 | 1015.6 |
| 20260508041558 | 16 | 0 | 0.0 | 1.6 | 0.00 | 0.00 | 0.00 | 71 | 1015.5 |
| 20260508041054 | 16 | 0 | 0.0 | 1.6 | 0.00 | 0.00 | 0.00 | 71 | 1015.5 |
| 20260508040555 | 16 | 0 | 0.0 | 1.6 | 0.00 | 0.00 | 0.00 | 71 | 1015.5 |
| 20260508035554 | 16 | 0 | 0.0 | 3.2 | 0.00 | 0.00 | 0.00 | 71 | 1015.6 |
| 20260508035055 | 16 | 0 | 0.0 | 3.2 | 0.00 | 0.00 | 0.00 | 70 | 1015.5 |
| 20260508034558 | 16 | 0 | 0.0 | 1.6 | 0.00 | 0.00 | 0.00 | 70 | 1015.4 |
| 20260508034055 | 16 | 0 | 0.0 | 1.6 | 0.00 | 0.00 | 0.00 | 70 | 1015.4 |
| 20260508033559 | 16 | 190 | 0.0 | 1.6 | 0.00 | 0.00 | 0.00 | 70 | 1015.4 |
| 20260508033059 | 16 | 0 | 0.0 | 1.6 | 0.00 | 0.00 | 0.00 | 69 | 1015.6 |
| 20260508032555 | 17 | 0 | 0.0 | 1.6 | 0.00 | 0.00 | 0.00 | 69 | 1015.5 |
| 20260508032055 | 17 | 0 | 0.0 | 1.6 | 0.00 | 0.00 | 0.00 | 69 | 1015.3 |
| 20260508031555 | 17 | 0 | 0.0 | 1.6 | 0.00 | 0.00 | 0.00 | 69 | 1015.4 |
| 20260508031055 | 17 | 0 | 0.0 | 1.6 | 0.00 | 0.00 | 0.00 | 69 | 1015.3 |
| 20260508030555 | 17 | 0 | 0.0 | 1.6 | 0.00 | 0.00 | 0.00 | 68 | 1015.4 |
| 20260508030057 | 17 | 0 | 0.0 | 1.6 | 0.00 | 0.00 | 0.00 | 68 | 1015.2 |
| 20260508025554 | 17 | 0 | 0.0 | 1.6 | 0.00 | 0.00 | 0.00 | 68 | 1015.1 |
| 20260508025054 | 17 | 0 | 0.0 | 1.6 | 0.00 | 0.00 | 0.00 | 68 | 1015.0 |
| 20260508024555 | 17 | 0 | 0.0 | 1.6 | 0.00 | 0.00 | 0.00 | 68 | 1015.0 |
| 20260508024055 | 17 | 0 | 0.0 | 1.6 | 0.00 | 0.00 | 0.00 | 68 | 1014.9 |
| 20260508023556 | 17 | 0 | 0.0 | 1.6 | 0.00 | 0.00 | 0.00 | 67 | 1014.8 |
| 20260508023059 | 18 | 0 | 0.0 | 0.0 | 0.00 | 0.00 | 0.00 | 67 | 1014.8 |